Location: Allen Fire Department Station 4
(33.1073°N, 96.6988°W)
Time: 16:58:19
(UTC+00:00)

Aurora 2 Rocket - Pass Details

Date: 02 July 2022
Orbit: 389 x 1718 km, 25.0° (Epoch: 06 August)

Event Time Altitude Azimuth Distance (km) Brightness Sun altitude
Rises 04:12:50 0° 242° (WSW) 4,621 7.1 -24.9°
Reaches altitude 10° 04:16:36 10° 235° (SW) 3,450 6.3 -25.4°
Enters shadow 04:22:11 31° 204° (SSW) 1,933 4.7 -26.0°
